Mount Holly, NJ

5:54 AM EST on December 06, 2019 (GMT -0500)
South Jersey Regional

Weather History for KVAY - October, 2019

Change the Weather History Date:

Sunday, October 27, 2019

  Actual Average (KPNE) Record (KPNE)
Temperature  
Mean Temperature 64 °F -  
Max Temperature 73 °F 59 °F 75 °F (2010)
Min Temperature 55 °F 40 °F 30 °F (2006)
Degree Days  
Heating Degree Days 1    
Growing Degree Days 14 (Base 50)    
Moisture  
Dew Point 61 °F    
Average Humidity 84    
Maximum Humidity 96    
Minimum Humidity 56    
Precipitation  
Precipitation 0.64 in - - ()
Sea Level Pressure  
Sea Level Pressure 29.84 in    
Wind  
Wind Speed 6 mph (South)    
Max Wind Speed 15 mph    
Max Gust Speed 22 mph    
Visibility 7 miles    
Events Rain    
Averages and records for this station are not official NWS values.
T = Trace of Precipitation, MM = Missing Value Source: NWS Daily Summary

Daily Weather History Graph

Daily Weather History Graph

Search for Another Location

Airport or City:

Astronomy

Oct. 27, 2019 Rise Set
Actual Time 7:22 AM EDT 6:03 PM EDT
Civil Twilight 6:54 AM EDT 6:31 PM EDT
Nautical Twilight 6:22 AM EDT 7:02 PM EDT
Astronomical Twilight 5:51 AM EDT 7:34 PM EDT
Moon 6:28 AM EDT (10/27) 6:11 PM EDT (10/27)
Length of Visible Light 11h 36m
Length of Day
10h 41m
Waning Crescent, 0% of the Moon is Illuminated
Oct 27
Waning Crescent
Oct 27
New
Nov 4
First Quarter
Nov 12
Full
Nov 19
Last Quarter

Hourly Weather History & Observations

Time (EDT) Temp. Dew Point Humidity Pressure Visibility Wind Dir Wind Speed Gust Speed Precip Events Conditions
12:54 AM 55.0 °F 48.0 °F 77% 30.17 in 10.0 mi East 5.8 mph - N/A   Partly Cloudy
1:54 AM 55.9 °F 48.9 °F 77% 30.15 in 10.0 mi East 4.6 mph - N/A   Clear
2:54 AM 57.0 °F 51.1 °F 81% 30.12 in 10.0 mi East 3.5 mph - N/A   Overcast
3:54 AM 57.9 °F 52.0 °F 81% 30.07 in 10.0 mi East 5.8 mph - N/A   Partly Cloudy
4:54 AM 60.1 °F 54.0 °F 80% 30.06 in 10.0 mi Variable 6.9 mph - N/A   Mostly Cloudy
5:37 AM 61.0 °F 55.0 °F 81% 30.03 in 10.0 mi Variable 4.6 mph - N/A   Overcast
5:54 AM 60.1 °F 55.9 °F 86% 30.02 in 7.0 mi ESE 6.9 mph - 0.01 in Rain Light Rain
6:54 AM 60.1 °F 57.0 °F 90% 29.99 in 6.0 mi ESE 5.8 mph - 0.07 in Rain Rain
7:54 AM 61.0 °F 57.9 °F 90% 29.93 in 5.0 mi ESE 8.1 mph - 0.06 in Rain Light Rain
8:54 AM 62.1 °F 60.1 °F 93% 29.91 in 10.0 mi SE 11.5 mph 19.6 mph 0.02 in   Overcast
9:42 AM 63.0 °F 61.0 °F 93% 29.90 in 1.5 mi SE 11.5 mph 17.3 mph 0.01 in Rain Heavy Rain
9:54 AM 64.0 °F 61.0 °F 90% 29.88 in 2.0 mi Variable 3.5 mph 21.9 mph 0.02 in Rain Light Rain
10:39 AM 64.9 °F 63.0 °F 93% 29.82 in 3.0 mi SSE 9.2 mph 19.6 mph 0.09 in Rain Light Rain
10:54 AM 64.9 °F 63.0 °F 93% 29.81 in 2.5 mi SE 11.5 mph - 0.12 in Rain Light Rain
11:32 AM 66.0 °F 64.0 °F 93% 29.78 in 4.0 mi SSE 9.2 mph 20.7 mph 0.06 in Rain Light Rain
11:54 AM 68.0 °F 66.0 °F 93% 29.78 in 4.0 mi Variable 6.9 mph - 0.10 in Rain Light Rain
12:04 PM 68.0 °F 66.0 °F 93% 29.78 in 2.5 mi Variable 5.8 mph - 0.02 in Rain Light Rain
12:11 PM 68.0 °F 66.9 °F 96% 29.77 in 5.0 mi Variable 6.9 mph - 0.03 in Rain Light Rain
12:31 PM 68.0 °F 66.9 °F 96% 29.74 in 4.0 mi SSE 9.2 mph 18.4 mph 0.06 in Rain Rain
12:47 PM 69.1 °F 66.9 °F 93% 29.74 in 4.0 mi Variable 4.6 mph - 0.08 in Rain Rain
12:52 PM 69.8 °F 66.2 °F 88% 29.75 in 2.5 mi North - - 0.09 in Rain Rain
12:54 PM 69.1 °F 66.9 °F 93% 29.75 in 2.5 mi North - - 0.09 in Rain Rain
12:59 PM 69.1 °F 66.9 °F 93% 29.74 in 4.0 mi Variable 4.6 mph - 0.01 in Rain Light Rain
1:06 PM 69.1 °F 66.9 °F 93% 29.73 in 9.0 mi Variable 5.8 mph - 0.02 in Rain Light Rain
1:13 PM 69.1 °F 68.0 °F 96% 29.73 in 10.0 mi Variable 4.6 mph - 0.03 in   Overcast
1:23 PM 70.0 °F 68.0 °F 93% 29.71 in 10.0 mi Variable 4.6 mph - 0.05 in   Overcast
1:36 PM 71.1 °F 69.1 °F 93% 29.71 in 10.0 mi Variable 3.5 mph - 0.07 in   Overcast
1:41 PM 71.1 °F 69.1 °F 93% 29.71 in 5.0 mi Variable 6.9 mph - 0.07 in Rain Light Rain
1:46 PM 71.1 °F 68.0 °F 90% 29.71 in 2.5 mi WSW 10.4 mph 16.1 mph 0.08 in Rain Light Rain
1:50 PM 71.6 °F 68.0 °F 88% 29.71 in 3.0 mi WSW 11.5 mph 19.6 mph 0.08 in Rain Light Rain
1:54 PM 71.1 °F 68.0 °F 90% 29.71 in 6.0 mi WSW 15.0 mph 19.6 mph 0.09 in Rain Light Rain
2:27 PM 70.0 °F 66.0 °F 87% 29.70 in 10.0 mi West 8.1 mph 18.4 mph 0.04 in   Overcast
2:45 PM 70.0 °F 66.0 °F 87% 29.69 in 10.0 mi WSW 3.5 mph - 0.06 in   Overcast
2:54 PM 71.1 °F 66.0 °F 84% 29.70 in 10.0 mi WSW 5.8 mph - 0.06 in   Overcast
3:54 PM 73.9 °F 64.0 °F 71% 29.71 in 10.0 mi Variable 5.8 mph - N/A   Partly Cloudy
4:54 PM 73.9 °F 61.0 °F 64% 29.74 in 10.0 mi WNW 8.1 mph 17.3 mph N/A   Partly Cloudy
5:54 PM 72.0 °F 61.0 °F 68% 29.77 in 10.0 mi Calm Calm - N/A   Mostly Cloudy
6:54 PM 64.9 °F 61.0 °F 87% 29.79 in 10.0 mi Calm Calm - N/A   Scattered Clouds
7:54 PM 69.1 °F 57.0 °F 65% 29.83 in 10.0 mi NW 3.5 mph - N/A   Clear
8:54 PM 68.0 °F 52.0 °F 56% 29.86 in 10.0 mi WNW 6.9 mph - N/A   Clear
9:54 PM 64.0 °F 50.0 °F 60% 29.90 in 10.0 mi WNW 8.1 mph 18.4 mph N/A   Clear
10:54 PM 63.0 °F 48.9 °F 60% 29.94 in 10.0 mi West 5.8 mph - N/A   Clear
11:54 PM 61.0 °F 48.9 °F 64% 29.95 in 10.0 mi WNW 5.8 mph - N/A   Clear